Location: Newark
(33.9035°S, 18.4112°E)
Time: 15:26:57
(UTC+00:00)

STARLINK-1089 - Pass Details

Date: 22 January 2020
Orbit: 349 x 350 km, 53.0° (Epoch: 18 February)

Event Time Altitude Azimuth Distance (km) Brightness Sun altitude
Rises 10:51:36 0° 234° (SW) 2,183 6.6 76.0°
Reaches altitude 10° 10:53:44 10° 244° (WSW) 1,332 5.7 76.0°
Drops below altitude 10° 10:59:07 10° 16° (NNE) 1,316 5.9 76.1°
Enters shadow 11:26:49 -57° 43° (NE) 11,036 9.7 74.6°
Exits shadow 12:03:07 -52° 210° (SSW) 10,464 9.6 69.8°
